O3B FM13

Last updated on Fri Jul 17 2026 00:03:26 GMT+0000 (Coordinated Universal Time)

1 43234U 18024D 26196.23648676 -.00000024 00000+0 00000+0 0 9992 2 43234 0.0539 323.2184 0001930 92.4344 304.3616 5.00115602152468
UTC large
Height (km)
Speed (km/s)
/
Latitude / Longitude
Inclination (degrees)
Orbital Period (minutes)
Azimuth
Elevation
Range (km)
Doppler Factor

Next 0 passes for location: London (51.5072 / 0.1276)

No passes found over London.
O3B FM13